| time (UTC) | temp F | wind direction | speed knots | gust knots | rain 1hr in | rain 24hr in | rain mn in | humidity % | barometer mb |
| 20260503184105 | 63 | 195 | 3.5 | 7.8 | 0.00 | 0.00 | 0.00 | 39 | 988.7 |
| 20260503183105 | 63 | 237 | 2.6 | 4.3 | 0.00 | 0.00 | 0.00 | 39 | 988.4 |
| 20260503182104 | 62 | 177 | 2.6 | 7.0 | 0.00 | 0.00 | 0.00 | 40 | 989.0 |
| 20260503181604 | 62 | 216 | 1.7 | 5.2 | 0.00 | 0.00 | 0.00 | 40 | 989.0 |
| 20260503181104 | 62 | 234 | 2.6 | 4.3 | 0.00 | 0.00 | 0.00 | 38 | 989.0 |
| 20260503180105 | 62 | 175 | 5.2 | 7.8 | 0.00 | 0.00 | 0.00 | 38 | 989.2 |
| 20260503175605 | 62 | 179 | 3.5 | 8.7 | 0.00 | 0.00 | 0.00 | 38 | 988.8 |
| 20260503175105 | 61 | 196 | 3.5 | 10.4 | 0.00 | 0.00 | 0.00 | 40 | 989.0 |
| 20260503174605 | 61 | 183 | 4.3 | 10.4 | 0.00 | 0.00 | 0.00 | 37 | 989.1 |
| 20260503174105 | 61 | 239 | 4.3 | 7.8 | 0.00 | 0.00 | 0.00 | 40 | 989.2 |
| 20260503173105 | 61 | 189 | 4.3 | 8.7 | 0.00 | 0.00 | 0.00 | 39 | 989.3 |
| 20260503172605 | 62 | 191 | 5.2 | 10.4 | 0.00 | 0.00 | 0.00 | 40 | 989.3 |
| 20260503172105 | 62 | 192 | 4.3 | 7.0 | 0.00 | 0.00 | 0.00 | 38 | 989.4 |
| 20260503171604 | 61 | 182 | 2.6 | 7.8 | 0.00 | 0.00 | 0.00 | 40 | 989.4 |
| 20260503170604 | 61 | 188 | 6.1 | 8.7 | 0.00 | 0.00 | 0.00 | 39 | 989.8 |
| 20260503170104 | 61 | 198 | 5.2 | 11.3 | 0.00 | 0.00 | 0.00 | 38 | 989.8 |
| 20260503150604 | 58 | 198 | 2.6 | 7.8 | 0.00 | 0.00 | 0.00 | 44 | 990.9 |
| 20260503150104 | 57 | 198 | 1.7 | 5.2 | 0.00 | 0.00 | 0.00 | 46 | 990.9 |
| 20260503140104 | 51 | 230 | 3.5 | 7.0 | 0.00 | 0.00 | 0.00 | 58 | 991.1 |
| 20260503131104 | 44 | 209 | 1.7 | 4.3 | 0.00 | 0.00 | 0.00 | 71 | 991.5 |
| 20260503130604 | 44 | 177 | 1.7 | 4.3 | 0.00 | 0.00 | 0.00 | 74 | 991.5 |
| 20260503130104 | 43 | 185 | 2.6 | 4.3 | 0.00 | 0.00 | 0.00 | 77 | 991.5 |
| 20260503120105 | 37 | 156 | 0.9 | 2.6 | 0.00 | 0.00 | 0.00 | 83 | 991.5 |
| 20260503110605 | 32 | 237 | 0.0 | 0.0 | 0.00 | 0.00 | 0.00 | 98 | 991.2 |
| 20260503110104 | 32 | 237 | 0.0 | 0.0 | 0.00 | 0.00 | 0.00 | 99 | 991.2 |
| 20260503100104 | 32 | 339 | 0.0 | 0.0 | 0.00 | 0.00 | 0.00 | 98 | 990.7 |
| 20260503090104 | 32 | 290 | 0.0 | 0.9 | 0.00 | 0.00 | 0.00 | 98 | 990.7 |
| 20260503081604 | 32 | 270 | 0.0 | 0.0 | 0.00 | 0.00 | 0.00 | 97 | 990.8 |
| 20260503081104 | 32 | 270 | 0.0 | 0.0 | 0.00 | 0.00 | 0.00 | 97 | 990.8 |
| 20260503080104 | 32 | 270 | 0.0 | 0.0 | 0.00 | 0.00 | 0.00 | 97 | 990.7 |
| 20260503072104 | 32 | 270 | 0.0 | 0.0 | 0.00 | 0.00 | 0.00 | 97 | 990.7 |
| 20260503071604 | 32 | 270 | 0.0 | 0.0 | 0.00 | 0.00 | 0.00 | 97 | 990.7 |
| 20260503071104 | 33 | 270 | 0.0 | 0.0 | 0.00 | 0.00 | 0.00 | 96 | 990.8 |
| 20260503070604 | 33 | 270 | 0.0 | 0.0 | 0.00 | 0.00 | 0.00 | 97 | 990.7 |
| 20260503060104 | 33 | 270 | 0.0 | 0.0 | 0.00 | 0.00 | 0.00 | 95 | 991.1 |
| 20260503055104 | 33 | 270 | 0.0 | 0.0 | 0.00 | 0.00 | 0.00 | 94 | 991.1 |
| 20260503054604 | 33 | 270 | 0.0 | 0.0 | 0.00 | 0.00 | 0.00 | 94 | 991.2 |
| 20260503054104 | 33 | 270 | 0.0 | 0.0 | 0.00 | 0.00 | 0.00 | 94 | 991.2 |
| 20260503053103 | 34 | 270 | 0.0 | 0.0 | 0.00 | 0.00 | 0.00 | 93 | 991.2 |
| 20260503052103 | 34 | 270 | 0.0 | 0.9 | 0.00 | 0.00 | 0.00 | 93 | 991.1 |
| 20260503051603 | 34 | 31 | 0.0 | 0.0 | 0.00 | 0.00 | 0.00 | 92 | 991.1 |
| 20260503051103 | 34 | 31 | 0.0 | 0.0 | 0.00 | 0.00 | 0.00 | 92 | 991.0 |
| 20260503050604 | 34 | 31 | 0.0 | 0.0 | 0.00 | 0.00 | 0.00 | 92 | 991.1 |
| 20260503050104 | 34 | 31 | 0.0 | 0.9 | 0.00 | 0.00 | 0.00 | 92 | 991.1 |
| 20260503045119 | 34 | 249 | 0.0 | 0.0 | 0.00 | 0.00 | 0.00 | 92 | 991.1 |
| 20260503044118 | 35 | 249 | 0.0 | 0.0 | 0.00 | 0.00 | 0.00 | 91 | 991.1 |
| 20260503043618 | 35 | 252 | 0.0 | 0.0 | 0.00 | 0.00 | 0.00 | 91 | 991.1 |
| 20260503042619 | 35 | 279 | 0.0 | 0.0 | 0.00 | 0.00 | 0.00 | 91 | 991.1 |
| 20260503042118 | 35 | 279 | 0.0 | 0.0 | 0.00 | 0.00 | 0.00 | 90 | 991.1 |
| 20260503041619 | 35 | 279 | 0.0 | 0.0 | 0.00 | 0.00 | 0.00 | 90 | 991.1 |
| 20260503041118 | 35 | 279 | 0.0 | 0.0 | 0.00 | 0.00 | 0.00 | 91 | 991.1 |
| 20260503040619 | 35 | 279 | 0.0 | 0.0 | 0.00 | 0.00 | 0.00 | 91 | 991.1 |
| 20260503040119 | 35 | 279 | 0.0 | 0.0 | 0.00 | 0.00 | 0.00 | 90 | 991.1 |
| 20260503035619 | 36 | 279 | 0.0 | 0.0 | 0.00 | 0.00 | 0.00 | 90 | 991.2 |
| 20260503034619 | 36 | 279 | 0.0 | 0.0 | 0.00 | 0.00 | 0.00 | 89 | 991.3 |
| 20260503034118 | 36 | 279 | 0.0 | 0.0 | 0.00 | 0.00 | 0.00 | 89 | 991.3 |
| 20260503033618 | 36 | 279 | 0.0 | 0.0 | 0.00 | 0.00 | 0.00 | 89 | 991.2 |
| 20260503033118 | 36 | 279 | 0.0 | 0.0 | 0.00 | 0.00 | 0.00 | 89 | 991.2 |
| 20260503032618 | 36 | 279 | 0.0 | 0.0 | 0.00 | 0.00 | 0.00 | 88 | 991.3 |
| 20260503032118 | 37 | 279 | 0.0 | 0.0 | 0.00 | 0.00 | 0.00 | 88 | 991.3 |
| 20260503031618 | 37 | 295 | 0.0 | 0.0 | 0.00 | 0.00 | 0.00 | 88 | 991.3 |
| 20260503030618 | 37 | 295 | 0.0 | 0.0 | 0.00 | 0.00 | 0.00 | 87 | 991.3 |
| 20260503030119 | 37 | 295 | 0.0 | 0.0 | 0.00 | 0.00 | 0.00 | 86 | 991.3 |
| 20260503025619 | 38 | 295 | 0.0 | 0.0 | 0.00 | 0.00 | 0.00 | 85 | 991.3 |
| 20260503024619 | 38 | 261 | 0.0 | 0.0 | 0.00 | 0.00 | 0.00 | 80 | 991.2 |
| 20260503024118 | 38 | 261 | 0.0 | 0.0 | 0.00 | 0.00 | 0.00 | 81 | 991.2 |
| 20260503023618 | 39 | 261 | 0.0 | 0.0 | 0.00 | 0.00 | 0.00 | 81 | 991.2 |
| 20260503023118 | 39 | 224 | 0.0 | 0.0 | 0.00 | 0.00 | 0.00 | 79 | 991.2 |
| 20260503022618 | 39 | 224 | 0.0 | 0.0 | 0.00 | 0.00 | 0.00 | 79 | 991.2 |
| 20260503022118 | 39 | 224 | 0.0 | 0.9 | 0.00 | 0.00 | 0.00 | 78 | 991.2 |
| 20260503021618 | 40 | 250 | 0.0 | 0.9 | 0.00 | 0.00 | 0.00 | 78 | 991.2 |
| 20260503020618 | 40 | 314 | 0.0 | 0.0 | 0.00 | 0.00 | 0.00 | 77 | 991.0 |
| 20260503020118 | 41 | 313 | 0.0 | 0.9 | 0.00 | 0.00 | 0.00 | 78 | 991.0 |
| 20260503015618 | 42 | 269 | 0.0 | 0.0 | 0.00 | 0.00 | 0.00 | 75 | 991.0 |
| 20260503015118 | 42 | 268 | 0.0 | 0.0 | 0.00 | 0.00 | 0.00 | 71 | 990.9 |
| 20260503014618 | 43 | 268 | 0.0 | 0.0 | 0.00 | 0.00 | 0.00 | 71 | 990.9 |
| 20260503014119 | 43 | 284 | 0.0 | 0.9 | 0.00 | 0.00 | 0.00 | 68 | 990.8 |
| 20260503013618 | 44 | 256 | 0.0 | 0.9 | 0.00 | 0.00 | 0.00 | 66 | 990.8 |
| 20260503013118 | 44 | 277 | 0.0 | 0.9 | 0.00 | 0.00 | 0.00 | 60 | 990.7 |
| 20260503012619 | 44 | 231 | 0.0 | 0.9 | 0.00 | 0.00 | 0.00 | 61 | 990.7 |
| 20260503012118 | 44 | 204 | 0.0 | 0.0 | 0.00 | 0.00 | 0.00 | 61 | 990.6 |
| 20260503011618 | 44 | 204 | 0.0 | 0.9 | 0.00 | 0.00 | 0.00 | 64 | 990.6 |
| 20260503010618 | 46 | 324 | 0.0 | 1.7 | 0.00 | 0.00 | 0.00 | 63 | 990.5 |
| 20260503010118 | 46 | 282 | 0.0 | 0.0 | 0.00 | 0.00 | 0.00 | 58 | 990.5 |
| 20260503005618 | 46 | 343 | 0.0 | 0.9 | 0.00 | 0.00 | 0.00 | 57 | 990.4 |
| 20260503005118 | 46 | 344 | 0.0 | 0.9 | 0.00 | 0.00 | 0.00 | 58 | 990.4 |
| 20260503004618 | 47 | 29 | 0.0 | 0.0 | 0.00 | 0.00 | 0.00 | 56 | 990.3 |
| 20260503004118 | 47 | 29 | 0.0 | 0.9 | 0.00 | 0.00 | 0.00 | 55 | 990.3 |
| 20260503003618 | 48 | 196 | 0.0 | 1.7 | 0.00 | 0.00 | 0.00 | 54 | 990.3 |
| 20260503003118 | 48 | 294 | 0.9 | 1.7 | 0.00 | 0.00 | 0.00 | 52 | 990.2 |
| 20260503002619 | 48 | 29 | 0.9 | 1.7 | 0.00 | 0.00 | 0.00 | 51 | 990.2 |
| 20260503002117 | 49 | 355 | 0.9 | 4.3 | 0.00 | 0.00 | 0.00 | 50 | 990.1 |
| 20260503001618 | 49 | 15 | 0.0 | 2.6 | 0.00 | 0.00 | 0.00 | 50 | 990.1 |
| 20260503001118 | 49 | 352 | 0.9 | 2.6 | 0.00 | 0.00 | 0.00 | 49 | 990.0 |
| 20260503000618 | 49 | 25 | 0.9 | 2.6 | 0.00 | 0.00 | 0.00 | 49 | 990.0 |
| 20260503000118 | 50 | 32 | 1.7 | 5.2 | 0.00 | 0.00 | 0.00 | 48 | 990.0 |
| 20260502235618 | 50 | 191 | 0.9 | 4.3 | 0.00 | 0.00 | 0.00 | 48 | 989.9 |
| 20260502235118 | 50 | 81 | 0.0 | 2.6 | 0.00 | 0.00 | 0.00 | 49 | 989.9 |
| 20260502234618 | 51 | 52 | 0.9 | 4.3 | 0.00 | 0.00 | 0.00 | 47 | 989.8 |
| 20260502234118 | 51 | 22 | 1.7 | 4.3 | 0.00 | 0.00 | 0.00 | 46 | 989.7 |
| 20260502233617 | 51 | 179 | 0.0 | 2.6 | 0.00 | 0.00 | 0.00 | 48 | 989.8 |
| 20260502233118 | 51 | 263 | 0.9 | 2.6 | 0.00 | 0.00 | 0.00 | 46 | 989.7 |
| 20260502232618 | 51 | 14 | 1.7 | 4.3 | 0.00 | 0.00 | 0.00 | 46 | 989.7 |
| 20260502231618 | 52 | 18 | 0.9 | 4.3 | 0.00 | 0.00 | 0.00 | 46 | 989.7 |
| 20260502231118 | 52 | 20 | 1.7 | 2.6 | 0.00 | 0.00 | 0.00 | 46 | 989.7 |
| 20260502230617 | 53 | 4 | 0.9 | 2.6 | 0.00 | 0.00 | 0.00 | 46 | 989.7 |
| 20260502230118 | 53 | 23 | 2.6 | 5.2 | 0.00 | 0.00 | 0.00 | 45 | 989.5 |
| 20260502225618 | 53 | 305 | 2.6 | 5.2 | 0.00 | 0.00 | 0.00 | 45 | 989.5 |
| 20260502225118 | 54 | 291 | 0.9 | 2.6 | 0.00 | 0.00 | 0.00 | 47 | 989.6 |
| 20260502224617 | 54 | 41 | 1.7 | 2.6 | 0.00 | 0.00 | 0.00 | 44 | 989.5 |
| 20260502224118 | 55 | 3 | 2.6 | 6.1 | 0.00 | 0.00 | 0.00 | 43 | 989.4 |
| 20260502223618 | 55 | 311 | 0.9 | 6.1 | 0.00 | 0.00 | 0.00 | 45 | 989.1 |
| 20260502223118 | 54 | 269 | 2.6 | 4.3 | 0.00 | 0.00 | 0.00 | 44 | 989.1 |
| 20260502221618 | 53 | 24 | 2.6 | 6.1 | 0.00 | 0.00 | 0.00 | 43 | 989.2 |
| 20260502221118 | 53 | 10 | 2.6 | 7.0 | 0.00 | 0.00 | 0.00 | 43 | 989.3 |
| 20260502220617 | 54 | 24 | 1.7 | 5.2 | 0.00 | 0.00 | 0.00 | 45 | 989.3 |
| 20260502220118 | 54 | 306 | 0.9 | 4.3 | 0.00 | 0.00 | 0.00 | 46 | 989.2 |
| 20260502215618 | 55 | 1 | 1.7 | 4.3 | 0.00 | 0.00 | 0.00 | 45 | 989.3 |
| 20260502215118 | 54 | 11 | 1.7 | 6.1 | 0.00 | 0.00 | 0.00 | 44 | 989.2 |
| 20260502214617 | 54 | 312 | 2.6 | 6.1 | 0.00 | 0.00 | 0.00 | 44 | 988.9 |
| 20260502213618 | 54 | 236 | 1.7 | 4.3 | 0.00 | 0.00 | 0.00 | 47 | 989.2 |
| 20260502212618 | 53 | 21 | 0.9 | 4.3 | 0.00 | 0.00 | 0.00 | 43 | 988.9 |
| 20260502211617 | 54 | 315 | 1.7 | 6.1 | 0.00 | 0.00 | 0.00 | 44 | 989.2 |
| 20260502211117 | 55 | 354 | 0.9 | 5.2 | 0.00 | 0.00 | 0.00 | 45 | 988.9 |
| 20260502205618 | 54 | 17 | 1.7 | 6.1 | 0.00 | 0.00 | 0.00 | 43 | 988.9 |
| 20260502205118 | 55 | 16 | 1.7 | 5.2 | 0.00 | 0.00 | 0.00 | 44 | 988.7 |
| 20260502204618 | 54 | 8 | 0.9 | 6.1 | 0.00 | 0.00 | 0.00 | 42 | 988.9 |
| 20260502204118 | 54 | 19 | 1.7 | 6.1 | 0.00 | 0.00 | 0.00 | 42 | 988.6 |
| 20260502203618 | 53 | 88 | 1.7 | 4.3 | 0.00 | 0.00 | 0.00 | 41 | 988.8 |
| 20260502203118 | 53 | 259 | 1.7 | 4.3 | 0.00 | 0.00 | 0.00 | 44 | 989.3 |
| 20260502202618 | 54 | 346 | 3.5 | 7.0 | 0.00 | 0.00 | 0.00 | 42 | 989.3 |
| 20260502202117 | 53 | 232 | 1.7 | 5.2 | 0.00 | 0.00 | 0.00 | 44 | 988.6 |
| 20260502201618 | 53 | 22 | 3.5 | 7.0 | 0.00 | 0.00 | 0.00 | 42 | 989.3 |
| 20260502200617 | 53 | 295 | 2.6 | 6.1 | 0.00 | 0.00 | 0.00 | 44 | 989.2 |
| 20260502200117 | 53 | 21 | 2.6 | 5.2 | 0.00 | 0.00 | 0.00 | 43 | 989.4 |
| 20260502195119 | 56 | 21 | 4.3 | 7.8 | 0.00 | 0.00 | 0.00 | 41 | 989.5 |
| 20260502194618 | 56 | 354 | 1.7 | 6.1 | 0.00 | 0.00 | 0.00 | 43 | 988.7 |
| 20260502194118 | 55 | 68 | 1.7 | 6.1 | 0.00 | 0.00 | 0.00 | 42 | 988.8 |
| 20260502193618 | 54 | 26 | 1.7 | 5.2 | 0.00 | 0.00 | 0.00 | 45 | 988.9 |
| 20260502193118 | 54 | 15 | 2.6 | 5.2 | 0.00 | 0.00 | 0.00 | 44 | 989.0 |
| 20260502192618 | 53 | 8 | 2.6 | 7.0 | 0.00 | 0.00 | 0.00 | 42 | 989.1 |
| 20260502192117 | 54 | 11 | 2.6 | 7.8 | 0.00 | 0.00 | 0.00 | 42 | 989.1 |
| 20260502191618 | 54 | 13 | 2.6 | 5.2 | 0.00 | 0.00 | 0.00 | 42 | 989.6 |
| 20260502190617 | 55 | 18 | 2.6 | 6.1 | 0.00 | 0.00 | 0.00 | 40 | 989.0 |
| 20260502190118 | 55 | 327 | 1.7 | 4.3 | 0.00 | 0.00 | 0.00 | 42 | 989.7 |
| 20260502185117 | 56 | 279 | 1.7 | 7.0 | 0.00 | 0.00 | 0.00 | 42 | 989.4 |